Home   Weather   Senftenberg   Past weeks

Flag for Germany Past Weather in Senftenberg, Brandenburg, Germany — Yesterday and Last 2 Weeks

Now
52 °F

Clear.


Feels Like: 51 °F
Forecast: 50 / 70 °F
Wind: 5 mph from South

Location: Dresden-Klotzsche

Current Time: Sep 27, 2016 at 2:20:31 AM

Latest Report: Sep 27, 2016 at 1:50 AM


Visibility: 6 mi

Pressure: 30.21 "Hg

Humidity: 100%

Dew Point: 52 °F

Location of SenftenbergLocation

Past Weather in Senftenberg — Graph

°F

Senftenberg Temperature Yesterday

Maximum temperature yesterday: 68 °F (at 3:50 PM)
Minimum temperature yesterday: 48 °F (at 4:20 AM)
Average temperature yesterday: 57 °F

High & Low Weather Summary for the Past Weeks

 TemperatureHumidityPressure
High86 °F (Sep 12, 1:50 PM)100% (Sep 12, 4:50 AM)30.33 "Hg (Sep 12, 4:50 AM)
Low43 °F (Sep 22, 5:20 AM)29% (Sep 12, 1:50 PM)29.83 "Hg (Sep 17, 3:50 AM)
Average61 °F73%30.07 "Hg
* Reported Sep 12 1:20 AM — Sep 27 1:20 AM, Senftenberg, Weather by CustomWeather, © 2016

Note: Actual official high and low records may vary slightly from our data, if they occured in-between our weather recording intervals... More about our weather records

Advertising

Senftenberg Weather History for the Previous 24 Hours

Scroll right to see more
 ConditionsComfort  
Time TempWeatherWind HumidityBarometerVisibility
1:20 AM
Tue, Sep 27
54 °FClear.2 mph94%30.21 "Hg10 mi
12:50 AM54 °FClear.3 mph94%30.21 "Hg10 mi
12:20 AM54 °FClear.2 mph94%30.21 "Hg10 mi
11:50 PM
Mon, Sep 26
54 °FClear.2 mph94%30.21 "Hg10 mi
11:20 PM55 °FClear.5 mph88%30.21 "Hg10 mi
10:50 PM55 °FClear.3 mph88%30.21 "Hg10 mi
10:20 PM55 °FClear.3 mph88%30.21 "Hg10 mi
9:50 PM57 °FClear.5 mph82%30.21 "Hg10 mi
9:20 PM59 °FClear.2 mph82%30.21 "Hg10 mi
8:50 PM57 °FClear.2 mph82%30.18 "Hg10 mi
8:20 PM59 °FClear.2 mph77%30.18 "Hg10 mi
7:50 PM61 °FClear.5 mph72%30.18 "Hg10 mi
7:20 PM63 °FClear.3 mph64%30.18 "Hg10 mi
6:50 PM64 °FSunny.2 mph60%30.18 "Hg10 mi
6:20 PM64 °FSunny.2 mph64%30.18 "Hg10 mi
5:50 PM66 °FSunny.3 mph56%30.18 "Hg10 mi
5:20 PM66 °FPassing clouds.5 mph56%30.18 "HgN/A
4:50 PM66 °FScattered clouds.3 mph52%30.18 "HgN/A
4:20 PM66 °FScattered clouds.3 mph56%30.18 "HgN/A
3:50 PM68 °FScattered clouds.5 mph56%30.18 "HgN/A
3:20 PM66 °FScattered clouds.3 mph56%30.18 "HgN/A
2:50 PM66 °FScattered clouds.3 mph60%30.18 "HgN/A
2:20 PM66 °FScattered clouds.5 mph60%30.15 "HgN/A
1:50 PM66 °FScattered clouds.3 mph60%30.18 "HgN/A
1:20 PM64 °FSunny.1 mph64%30.18 "Hg10 mi
12:50 PM64 °FSunny.2 mph60%30.18 "Hg10 mi
12:20 PM63 °FSunny.2 mph68%30.18 "Hg10 mi
11:50 AM63 °FSunny.5 mph68%30.18 "Hg10 mi
11:20 AM61 °FSunny.6 mph68%30.18 "Hg10 mi
10:50 AM61 °FSunny.7 mph72%30.18 "Hg10 mi
10:20 AM59 °FPassing clouds.7 mph68%30.15 "HgN/A
9:50 AM55 °FSunny.6 mph82%30.18 "Hg10 mi
9:20 AM54 °FSunny.7 mph82%30.15 "Hg10 mi
8:50 AM52 °FSunny.1 mph88%30.15 "Hg10 mi
8:20 AM50 °FSunny.5 mph88%30.15 "Hg10 mi
7:50 AM48 °FSunny.7 mph94%30.15 "Hg10 mi
7:20 AM48 °FPassing clouds.6 mph94%30.12 "HgN/A
6:50 AM48 °FClear.5 mph94%30.12 "Hg10 mi
6:20 AM48 °FClear.1 mph94%30.12 "Hg10 mi
5:50 AM48 °FPassing clouds.3 mph94%30.12 "HgN/A
5:20 AM48 °FClear.2 mph94%30.12 "Hg10 mi
4:50 AM48 °FClear.2 mph100%30.12 "Hg10 mi
4:20 AM48 °FClear.3 mph94%30.12 "Hg10 mi
3:50 AM50 °FClear.3 mph94%30.12 "Hg10 mi
3:20 AM52 °FClear.5 mph88%30.12 "Hg10 mi
2:50 AM50 °FClear.5 mph94%30.12 "Hg10 mi
2:20 AM50 °FClear.1 mph100%30.12 "Hg10 mi
Weather by CustomWeather, © 2016

See weather overviewHow to use our weather pages